Find Starlink 33853

NORAD ID: 63684 Int'l Des: 2025-085 Owner: SPXS Country: US Constellation: starlink operational
LEOCIRCULAR

現在のビュー

3D地球を読み込み中...

About Starlink 33853

Starlink 33853 (NORAD 63684) is a starlink constellation satellite (v2 mini) launched Apr 28, 2025 by SPXS of US. It operates in LEO, CIRCULAR orbit with a mass of 575.00 kg.

Starlink 33853について

説明を読み込み中...

次回通過

Passes for default location (London). Set your location on the main map for personalized predictions.

高度履歴

Loading altitude history...

軌道要素

1 63684U 25085W 26171.08424246 .00010406 00000-0 38704-3 0 9990
2 63684 43.0005 172.3124 0001382 270.5018 89.5675 15.27587567 64539
Epoch: Jun 20, 2026 • Age: 23 hours

現在のステータス

高度 484.0 km
速度 7.62 km/s
衛星直下点 -7.68°S, 73.6°E
打ち上げ日 Apr 28, 2025
運用期間 1.1 years
タイプ internet

技術仕様

分類 Payload
質量 575.00 kg
乾燥質量 530.00 kg
総質量 575.00 kg
長さ 0.30 m
直径 4.10 m
スパン 29.00 m
形状 Box + pan
製造者 SPXS
バスタイプ Starlink V2MO
フェーズステータス In Orbit
所有者/国 SPXS/US

Most Searched